Location: Unspecified
(0.0000°N, 0.0000°E)
Time: 09:19:35
(UTC+00:00)

Explorer 11/Cluster Stage 4 - Pass Details

Date: 17 July 2020
Orbit: 467 x 1259 km, 28.8° (Epoch: 03 August)

Event Time Altitude Azimuth Distance (km) Brightness Sun altitude
Rises 06:40:10 0° 272° (W) 2,495 8.6 7.9°
Reaches altitude 10° 06:43:09 10° 298° (WNW) 1,603 7.9 8.6°
Maximum altitude 06:45:09 14° 333° (NNW) 1,376 7.9 9.1°
Drops below altitude 10° 06:47:12 10° 7° (N) 1,641 8.7 9.5°
Sets 06:50:19 0° 33° (NNE) 2,599 10.2 10.3°
